Probability
13 12 11 10 6 3 2 1 0 0 0 0 0 0 0 0 0 0 0 0 0 0 0 0 0 0 0 0 0 0 0 0 0 0 0 0 1 1
11 10 8 7 5 3 1 0 0 0 0 0 0 0 0 0 0 0 0 0 0 0 0 0 0 0 0 0 0 0 0 0 0 0 0 0 0 1
6 6 4 4 4 3 1 0 0 0 0 0 0 0 0 0 0 0 0 0 0 0 0 0 0 0 0 0 0 0 0 0 0 0 0 0 0 0
3 3 2 1 2 2 1 0 0 0 0 0 0 0 0 0 0 0 0 0 0 0 0 0 0 0 0 0 0 0 0 0 0 0 0 0 0 0
1 1 1 0 1 1 0 0 0 0 0 0 0 0 0 0 0 0 0 0 0 0 0 0 0 0 0 0 0 0 0 0 0 0 0 0 0 0
0 0 0 0 0 0 0 0 0 0 0 0 0 0 0 0 0 0 0 0 0 0 0 0 0 0 0 0 0 0 0 0 0 0 0 0 0 0
0 0 0 0 0 0 0 0 0 0 0 0 0 0 0 0 0 0 0 0 0 0 0 0 0 0 0 0 0 0 0 0 0 0 0 0 0 0
0 0 0 0 0 0 0 0 0 0 0 0 0 0 0 0 0 0 0 0 0 0 0 0 0 0 0 0 0 0 0 0 0 0 0 0 0 0
0 0 0 0 0 0 0 0 0 0 0 0 0 0 0 0 0 0 0 0 0 0 0 0 0 0 0 0 0 0 0 0 0 0 0 0 0 0
0 0 0 0 0 0 0 0 0 0 0 0 0 0 0 0 0 0 0 0 0 0 0 0 0 0 0 0 0 0 0 0 0 0 0 0 0 0
0 0 0 0 0 0 0 0 0 0 0 0 0 0 0 0 0 0 0 0 0 0 0 0 0 0 0 0 0 0 0 0 0 0 0 0 0 0
0 0 0 0 0 0 0 0 0 0 0 0 0 0 0 0 0 0 0 0 0 0 0 0 0 0 0 0 0 0 0 0 0 0 0 0 0 0
0 0 0 0 0 0 0 0 0 0 0 0 0 0 0 0 0 0 0 0 0 0 0 0 0 0 0 0 0 0 0 0 0 0 0 0 0 0
0 0 0 0 0 0 0 0 0 0 0 0 0 0 0 0 0 0 0 0 0 0 0 0 0 0 0 0 0 0 0 0 0 0 0 0 0 0
0 0 0 0 0 0 0 0 0 0 0 0 0 0 0 0 0 0 0 0 0 0 0 0 0 0 0 0 0 0 0 0 0 0 0 0 0 0
0 0 0 0 0 0 0 0 0 0 0 0 0 0 0 0 0 0 0 0 0 0 0 0 0 0 0 0 0 0 0 0 0 0 0 0 0 0
0 0 0 0 0 0 0 0 0 0 0 0 0 0 0 0 0 0 0 0 0 0 0 0 0 0 0 0 0 0 0 0 0 0 0 0 0 0
0 0 0 0 0 0 0 0 0 0 0 0 0 0 0 0 0 0 0 0 0 0 0 0 0 0 0 0 0 0 0 0 0 0 0 0 0 0
0 0 0 0 0 0 0 0 0 0 0 0 0 0 0 0 0 0 0 0 0 0 0 0 0 0 0 0 0 0 0 0 0 0 0 0 0 0
0 0 0 0 0 0 0 0 0 0 0 0 0 0 0 0 0 0 0 0 0 0 0 0 0 0 0 0 0 0 0 0 0 0 0 0 0 0
0 0 0 0 0 0 0 0 0 0 0 0 0 0 0 0 0 0 0 0 0 0 0 0 0 0 0 0 0 0 0 0 0 0 0 0 0 0
0 0 0 0 0 0 0 0 0 0 0 0 0 0 0 0 0 0 0 0 0 0 0 0 0 0 0 0 0 0 0 0 0 0 0 0 0 0
0 0 0 0 0 0 0 0 0 0 0 0 0 0 0 0 0 0 0 0 0 0 0 0 0 0 0 0 0 0 0 0 0 0 0 0 0 0
Wind_Speed
2 2 1 2 2 2 2 2 2 3 3 3 3 3 3 2 1 2 0 3 3 2 2 2 3 4 5 7 8 10 12 13 15 16 17 19 22 25
2 0 1 1 1 2 2 2 1 2 2 3 3 4 5 5 3 3 2 3 3 3 2 2 3 4 5 7 9 10 12 13 15 16 16 18 20 23
1 2 2 3 3 3 3 2 2 2 2 2 2 3 4 5 4 4 2 0 2 4 3 3 2 4 5 7 9 10 12 13 14 15 16 18 20 23
4 5 5 4 4 4 3 4 3 2 2 3 3 3 4 5 4 4 3 2 1 2 3 2 2 4 6 7 9 10 11 12 13 14 16 18 21 24
6 6 6 6 6 4 5 5 4 4 2 3 3 3 3 5 5 5 4 3 2 1 1 2 3 4 5 7 8 9 10 10 11 12 14 17 20 23
7 8 7 7 6 6 7 7 6 4 4 4 4 5 5 6 6 5 4 3 3 3 3 2 3 4 4 5 7 8 9 9 8 8 10 14 18 21
7 7 7 8 10 8 7 6 7 7 6 5 5 5 6 6 7 5 5 3 2 3 3 2 2 2 2 3 6 8 9 8 5 3 7 11 15 18
5 5 6 6 7 8 9 9 9 7 6 6 5 5 6 6 5 5 4 4 3 3 3 2 2 2 3 3 5 8 9 9 8 4 4 9 14 17
5 4 6 8 7 4 2 4 6 7 6 5 5 4 5 5 6 6 4 4 2 3 3 2 2 3 2 2 4 6 8 10 11 11 10 11 13 15
6 6 6 6 8 7 3 3 4 4 4 3 2 2 3 4 6 6 5 4 1 2 4 3 3 2 2 2 3 4 6 8 10 11 12 13 14 14
7 7 7 6 10 10 5 5 5 3 2 2 3 3 5 6 6 5 7 7 5 2 4 3 3 3 2 2 1 3 4 5 7 8 9 10 11 10
6 7 10 8 9 10 6 6 6 5 7 6 3 3 3 4 6 5 5 5 6 4 5 4 3 3 3 2 1 1 1 3 4 5 6 7 7 4
6 5 4 6 7 7 5 4 4 6 6 4 3 4 4 5 5 5 4 3 3 3 4 4 3 3 3 3 2 1 1 1 1 2 4 7 8 5
6 6 4 4 4 4 3 5 9 8 4 4 4 4 4 4 4 5 6 5 3 2 3 4 3 4 4 3 2 2 1 1 1 1 2 5 5 6
5 7 7 4 1 2 3 4 5 4 4 4 4 4 4 4 4 5 6 6 6 5 6 5 4 4 3 3 3 2 2 1 1 0 1 2 3 3
5 5 5 4 4 5 4 3 1 2 2 3 3 3 4 4 4 4 4 5 4 4 6 7 7 6 4 4 3 4 3 2 2 1 1 1 1 2
5 4 3 4 4 4 3 2 3 2 2 2 3 3 4 4 4 3 3 4 4 5 5 5 7 6 4 4 4 4 4 3 2 2 1 1 1 1
4 4 5 5 4 3 2 3 3 3 2 2 3 3 3 3 3 3 3 4 4 4 4 5 6 6 5 4 6 5 4 4 3 3 2 1 0 1
2 4 4 3 2 3 2 2 4 4 1 2 2 2 3 3 3 3 3 4 4 4 4 4 5 5 6 6 4 5 4 4 4 4 3 2 1 1
4 5 4 2 2 2 2 2 3 3 2 1 2 2 2 3 3 3 3 3 4 4 4 3 4 4 4 4 3 2 3 3 3 3 3 3 2 2
6 6 5 4 4 3 3 3 2 3 3 1 1 1 1 2 2 3 3 3 3 3 4 4 4 7 4 3 3 3 2 1 1 2 3 3 2 2
7 7 5 4 4 4 4 3 3 3 4 3 2 1 0 1 2 3 3 3 3 4 4 4 5 5 4 5 4 4 4 2 0 0 0 0 1 2
7 6 5 5 5 4 4 5 5 3 3 3 2 2 1 1 1 2 2 3 3 4 4 4 5 4 4 5 5 4 6 5 3 1 0 1 2 3
Wind_Direction
238 249 273 320 312 309 310 312 321 329 336 13 16 22 4 9 48 295 1 169 189 211 233 260 276 282 284 283 281 276 271 266 259 253 243 229 216 210
227 182 42 351 336 319 318 332 350 336 326 354 8 4 2 352 11 348 1 162 186 200 219 253 284 296 299 297 292 285 278 271 261 249 237 224 211 205
104 95 83 55 21 0 358 5 13 360 334 348 14 7 11 359 352 344 338 228 184 200 217 241 280 303 307 304 301 294 286 278 266 251 235 219 206 198
73 70 59 57 42 30 9 21 17 15 8 6 13 14 17 3 354 351 0 9 41 173 217 254 288 309 312 311 309 306 296 285 270 252 232 214 201 193
71 66 57 47 32 21 35 22 18 24 30 39 35 25 21 8 6 10 17 4 0 98 205 257 286 303 313 316 318 318 313 296 275 251 226 206 193 187
71 66 59 51 31 18 41 22 18 18 36 43 40 30 20 8 10 3 10 8 11 14 7 351 317 300 311 328 341 343 336 320 287 249 219 196 185 178
92 89 82 77 63 52 53 33 29 28 28 30 33 30 16 7 4 352 358 346 24 18 343 349 341 339 337 353 8 9 3 354 336 253 200 181 171 165
106 111 114 84 78 77 74 63 53 48 33 29 29 23 14 2 346 342 346 349 351 356 339 343 357 4 9 20 21 27 27 29 31 47 122 150 153 152
71 63 77 66 48 31 70 89 73 66 56 51 38 16 11 351 341 344 348 348 340 334 333 343 356 1 14 29 35 47 46 46 53 58 76 101 115 122
67 64 72 54 27 5 4 62 80 65 44 62 50 0 4 342 340 344 343 339 347 15 356 345 343 341 357 21 32 59 66 64 65 69 75 84 91 99
74 53 62 57 22 14 23 40 42 25 319 292 288 305 320 327 338 357 0 359 355 13 10 349 335 320 328 1 26 68 84 82 83 84 86 90 96 98
106 87 67 60 39 29 31 35 22 350 337 327 299 299 334 4 8 18 10 356 353 351 1 346 340 341 335 331 333 356 88 103 111 115 119 121 125 117
137 113 86 67 52 33 32 39 359 322 309 322 14 30 24 22 12 1 360 352 350 341 346 346 337 344 331 320 323 336 3 99 122 142 158 163 168 167
98 111 115 98 60 20 16 0 350 345 350 16 30 23 16 13 353 346 348 343 327 321 349 359 342 340 334 328 328 329 349 27 90 126 144 164 186 202
95 121 141 152 130 290 280 322 349 13 11 19 22 13 2 357 354 357 353 346 348 16 29 12 357 341 339 333 337 345 352 10 21 59 144 154 170 172
134 144 170 201 251 281 274 254 193 65 9 15 20 5 359 1 5 6 354 342 350 355 8 8 359 355 348 349 8 14 13 12 10 25 77 109 125 146
152 163 198 212 224 230 211 150 101 83 29 24 32 15 3 359 358 0 360 354 356 357 1 0 353 354 24 21 28 24 18 13 8 13 48 78 94 118
161 206 214 217 208 185 150 137 119 87 23 17 49 26 1 356 0 358 14 8 356 354 5 10 4 355 351 39 32 17 11 5 359 1 14 37 103 144
190 251 248 209 170 143 135 116 112 115 77 19 54 34 360 350 2 357 28 12 352 348 358 19 17 3 355 354 4 26 13 358 358 6 4 356 348 160
224 242 240 191 160 150 138 123 119 129 126 53 76 48 358 343 0 355 23 25 345 339 352 17 16 350 326 315 320 17 41 18 359 353 349 343 9 72
216 235 235 191 177 167 150 147 158 149 142 192 144 119 345 341 5 352 355 11 343 348 358 357 346 329 312 330 347 6 26 30 333 336 338 344 357 19
216 222 219 191 180 171 164 173 190 171 163 190 172 146 113 7 354 345 356 357 354 5 357 343 343 343 344 351 351 354 355 340 262 179 332 66 5 5
230 221 205 192 188 175 177 188 200 197 179 177 169 151 131 52 339 332 353 5 2 1 353 348 349 344 345 347 348 349 357 354 353 20 61 194 224 257